Total_Precipitation_Accumulation
0.05 0.06 0.10 0.11 0.14 0.16 0.21 0.26 0.27 0.29 0.34 0.39 0.45 0.44 0.45 0.41 0.38 0.33 0.34 0.33 0.33 0.32 0.29 0.24 0.18 0.13 0.11 0.09 0.07 0.07 0.07 0.07 0.08 0.11 0.12 0.14 0.17 0.18 0.19 0.24 0.38 0.51 0.54
0.07 0.07 0.09 0.14 0.15 0.17 0.20 0.23 0.26 0.25 0.27 0.30 0.35 0.37 0.37 0.37 0.38 0.34 0.31 0.34 0.33 0.33 0.33 0.29 0.22 0.15 0.11 0.07 0.04 0.04 0.05 0.04 0.03 0.08 0.14 0.10 0.09 0.13 0.14 0.13 0.22 0.34 0.43
0.08 0.07 0.08 0.13 0.17 0.18 0.20 0.22 0.27 0.23 0.25 0.29 0.35 0.40 0.43 0.44 0.43 0.40 0.32 0.30 0.31 0.30 0.28 0.26 0.24 0.19 0.13 0.09 0.06 0.04 0.06 0.07 0.05 0.07 0.22 0.30 0.19 0.11 0.06 0.08 0.13 0.16 0.20
0.08 0.07 0.07 0.11 0.16 0.18 0.22 0.23 0.29 0.31 0.27 0.32 0.34 0.34 0.36 0.39 0.36 0.34 0.31 0.29 0.30 0.29 0.26 0.23 0.22 0.20 0.17 0.13 0.10 0.07 0.07 0.10 0.11 0.08 0.11 0.20 0.25 0.30 0.16 0.04 0.03 0.03 0.05
0.08 0.07 0.06 0.09 0.14 0.18 0.22 0.26 0.29 0.34 0.34 0.34 0.34 0.30 0.29 0.31 0.34 0.35 0.32 0.28 0.30 0.30 0.26 0.21 0.18 0.18 0.17 0.14 0.13 0.12 0.11 0.12 0.15 0.16 0.14 0.14 0.13 0.19 0.30 0.14 0.03 0.04 0.04
0.08 0.08 0.06 0.08 0.12 0.16 0.20 0.23 0.28 0.32 0.38 0.38 0.37 0.30 0.27 0.27 0.34 0.37 0.37 0.30 0.30 0.32 0.29 0.22 0.16 0.15 0.16 0.15 0.14 0.13 0.14 0.14 0.15 0.17 0.20 0.24 0.26 0.21 0.28 0.24 0.08 0.04 0.03
0.09 0.08 0.07 0.09 0.11 0.15 0.19 0.22 0.26 0.30 0.37 0.40 0.40 0.34 0.26 0.24 0.27 0.31 0.34 0.31 0.30 0.31 0.32 0.28 0.22 0.17 0.16 0.16 0.16 0.17 0.17 0.16 0.18 0.20 0.22 0.24 0.25 0.25 0.30 0.34 0.20 0.08 0.03
0.09 0.09 0.08 0.10 0.10 0.12 0.18 0.23 0.26 0.29 0.34 0.36 0.39 0.37 0.30 0.25 0.23 0.24 0.27 0.29 0.26 0.26 0.28 0.30 0.28 0.23 0.19 0.19 0.19 0.20 0.20 0.21 0.23 0.23 0.24 0.26 0.23 0.25 0.31 0.38 0.43 0.33 0.10
0.08 0.10 0.09 0.10 0.10 0.12 0.15 0.21 0.26 0.30 0.35 0.34 0.35 0.38 0.34 0.28 0.23 0.22 0.21 0.24 0.24 0.22 0.23 0.28 0.30 0.28 0.26 0.24 0.23 0.22 0.22 0.25 0.27 0.29 0.30 0.32 0.28 0.27 0.29 0.34 0.48 0.67 0.47
0.07 0.09 0.09 0.10 0.11 0.12 0.13 0.16 0.25 0.29 0.34 0.34 0.35 0.37 0.38 0.33 0.27 0.25 0.23 0.20 0.21 0.23 0.23 0.24 0.28 0.32 0.33 0.31 0.30 0.29 0.26 0.28 0.29 0.32 0.35 0.37 0.37 0.36 0.35 0.36 0.39 0.51 0.64
0.07 0.08 0.07 0.08 0.11 0.13 0.13 0.15 0.21 0.30 0.36 0.36 0.35 0.39 0.41 0.37 0.33 0.31 0.27 0.24 0.21 0.22 0.25 0.26 0.27 0.31 0.35 0.37 0.39 0.37 0.36 0.35 0.33 0.32 0.34 0.36 0.40 0.46 0.46 0.45 0.45 0.45 0.51
0.07 0.06 0.05 0.06 0.10 0.11 0.14 0.15 0.19 0.27 0.34 0.38 0.36 0.38 0.42 0.40 0.37 0.37 0.34 0.31 0.29 0.27 0.28 0.32 0.33 0.35 0.38 0.41 0.45 0.46 0.47 0.50 0.48 0.43 0.42 0.43 0.44 0.49 0.52 0.55 0.55 0.50 0.47
0.06 0.04 0.04 0.05 0.08 0.09 0.12 0.14 0.17 0.21 0.29 0.38 0.40 0.39 0.42 0.42 0.39 0.39 0.42 0.43 0.45 0.46 0.44 0.46 0.49 0.52 0.53 0.55 0.57 0.60 0.66 0.72 0.71 0.68 0.66 0.60 0.58 0.61 0.58 0.60 0.60 0.56 0.49
0.05 0.04 0.04 0.05 0.07 0.09 0.10 0.13 0.13 0.17 0.24 0.36 0.44 0.44 0.43 0.43 0.42 0.42 0.45 0.55 0.63 0.68 0.72 0.72 0.71 0.73 0.78 0.89 0.94 0.92 0.91 0.89 0.86 0.84 0.84 0.84 0.83 0.82 0.79 0.77 0.70 0.66 0.65
0.04 0.04 0.05 0.06 0.07 0.08 0.09 0.11 0.12 0.14 0.20 0.30 0.40 0.45 0.48 0.54 0.56 0.53 0.50 0.58 0.70 0.77 0.79 0.77 0.76 0.77 0.94 1.27 1.38 1.22 1.00 0.86 0.81 0.78 0.79 0.87 0.99 1.05 1.08 1.13 1.00 0.88 0.90
0.03 0.04 0.05 0.07 0.08 0.08 0.09 0.09 0.11 0.15 0.18 0.25 0.33 0.40 0.52 0.61 0.70 0.67 0.63 0.64 0.71 0.75 0.74 0.72 0.70 0.71 0.84 1.22 1.35 1.06 0.75 0.62 0.65 0.70 0.67 0.68 0.81 0.89 0.95 1.09 1.10 1.10 1.16
0.04 0.04 0.05 0.07 0.08 0.08 0.08 0.09 0.11 0.14 0.17 0.24 0.33 0.36 0.46 0.55 0.62 0.63 0.64 0.62 0.56 0.53 0.55 0.58 0.54 0.53 0.63 0.97 1.06 0.78 0.48 0.36 0.40 0.47 0.50 0.50 0.57 0.70 0.72 0.76 0.79 0.86 1.00
0.07 0.07 0.07 0.06 0.05 0.06 0.07 0.08 0.09 0.11 0.16 0.22 0.31 0.32 0.39 0.47 0.48 0.51 0.53 0.53 0.44 0.42 0.46 0.43 0.35 0.30 0.36 0.70 0.87 0.64 0.34 0.26 0.29 0.35 0.40 0.41 0.45 0.57 0.75 0.81 0.70 0.63 0.73
0.08 0.08 0.08 0.06 0.05 0.05 0.05 0.06 0.07 0.08 0.13 0.19 0.26 0.29 0.33 0.42 0.41 0.41 0.45 0.46 0.44 0.38 0.33 0.31 0.26 0.20 0.21 0.51 0.82 0.68 0.32 0.27 0.27 0.31 0.38 0.37 0.32 0.52 0.70 0.73 0.66 0.54 0.56
0.06 0.07 0.06 0.04 0.03 0.03 0.03 0.03 0.05 0.08 0.11 0.14 0.19 0.23 0.24 0.30 0.30 0.30 0.31 0.33 0.32 0.30 0.27 0.23 0.21 0.19 0.17 0.34 0.75 0.82 0.42 0.33 0.27 0.26 0.32 0.42 0.42 0.54 0.62 0.60 0.62 0.65 0.57
0.05 0.05 0.05 0.04 0.03 0.03 0.03 0.03 0.04 0.06 0.08 0.10 0.13 0.17 0.18 0.20 0.22 0.25 0.27 0.27 0.27 0.26 0.24 0.21 0.18 0.17 0.18 0.22 0.52 0.89 0.67 0.43 0.32 0.30 0.34 0.36 0.45 0.51 0.55 0.58 0.62 0.75 0.66
0.05 0.04 0.04 0.03 0.02 0.03 0.04 0.03 0.03 0.05 0.06 0.08 0.11 0.15 0.18 0.16 0.19 0.21 0.24 0.23 0.26 0.27 0.25 0.22 0.21 0.19 0.19 0.23 0.39 0.66 0.79 0.63 0.42 0.37 0.29 0.30 0.39 0.44 0.50 0.52 0.57 0.60 0.61
0.05 0.04 0.04 0.03 0.02 0.03 0.04 0.04 0.04 0.06 0.05 0.06 0.08 0.13 0.18 0.15 0.17 0.19 0.23 0.23 0.25 0.30 0.31 0.27 0.24 0.21 0.22 0.28 0.43 0.47 0.53 0.61 0.52 0.49 0.46 0.36 0.37 0.39 0.35 0.37 0.45 0.47 0.48
0.06 0.05 0.04 0.04 0.04 0.03 0.03 0.04 0.04 0.06 0.06 0.05 0.07 0.11 0.16 0.17 0.16 0.18 0.21 0.23 0.25 0.39 0.45 0.38 0.32 0.27 0.26 0.38 0.56 0.49 0.42 0.48 0.52 0.51 0.48 0.40 0.37 0.33 0.28 0.27 0.29 0.32 0.38
0.07 0.05 0.04 0.04 0.04 0.03 0.03 0.04 0.04 0.06 0.07 0.07 0.08 0.10 0.14 0.17 0.17 0.18 0.19 0.22 0.25 0.44 0.58 0.48 0.45 0.44 0.47 0.57 0.71 0.65 0.60 0.61 0.62 0.62 0.57 0.47 0.38 0.35 0.31 0.26 0.23 0.25 0.31
0.07 0.06 0.04 0.04 0.05 0.04 0.04 0.04 0.05 0.06 0.09 0.10 0.10 0.12 0.15 0.18 0.18 0.19 0.20 0.25 0.27 0.34 0.36 0.38 0.44 0.43 0.53 0.59 0.57 0.59 0.62 0.65 0.66 0.67 0.64 0.44 0.33 0.30 0.28 0.27 0.25 0.23 0.25